Location: Horn Lake
(34.9554°N, 90.0348°W)
Time: 12:31:12
(UTC+00:00)

Daily predictions for brighter satellites

Satellite Brightness Start Highest point End
(mag) Time Altitude Azimuth Time Altitude Azimuth Time Altitude Azimuth
Cosmos 1933 4.4 12:01:33 13° NW 12:04:01 23° W 12:07:02 10° SW
Cosmos 1814 Rocket 4.1 12:03:24 10° SSW 12:08:35 85° ESE 12:13:52 10° NNE
USA 267 4.1 12:03:30 10° NE 12:09:53 54° SE 12:16:14 10° SSW
Meteor 1-26 Rocket 4.3 12:04:55 10° N 12:10:29 88° E 12:16:13 10° S
NOSS 2-1 (C) 3.7 12:06:35 10° NW 12:10:33 80° WSW 12:16:06 10° SSE
Cosmos 2219 Rocket 4.5 12:06:31 10° N 12:10:35 20° ENE 12:14:36 10° ESE
Cosmos 2322 Rocket 3.5 12:07:36 10° N 12:12:57 40° ENE 12:18:13 10° SE
COSMO-SKYMED 1 3.2 12:10:01 10° SSW 12:13:43 32° W 12:17:26 10° NNW
CBERS-1 4.0 12:09:16 10° N 12:14:19 67° WNW 12:19:21 10° SSW
Cosmos 2058 Rocket 3.0 12:12:03 10° N 12:16:28 73° W 12:20:50 10° S
ATLAS 2AS CENTAUR R/B 3.7 12:10:08 10° S 12:17:03 54° ESE 12:23:47 10° NE
Cosmos-2242 2.9 12:14:07 10° N 12:18:21 76° W 12:22:30 10° S
CZ-3C R/B 3.9 12:14:34 10° SW 12:19:54 35° SSE 12:50:15 10° ESE
COSMOS 2406 4.3 12:16:38 10° WSW 12:21:01 23° WNW 12:25:25 10° N
Thor Agena Rocket 3.5 12:19:33 10° N 12:24:36 80° WNW 12:29:36 10° SSW
SMAP 3.1 12:20:35 10° N 12:25:14 83° WNW 12:29:54 10° SSW
IRIDIUM 106 4.3 12:20:34 10° S 12:25:46 77° W 12:31:00 10° N
Landsat 7 3.8 12:26:47 10° NNE 12:31:28 89° E 12:36:06 10° SSW
CENTAUR R/B 4.3 23:08:15 10° W 23:12:25 21° NW 23:17:17 10° N
NOSS 2-2 (E) 4.5 23:14:32 10° WSW 23:18:00 33° WNW 23:20:55 10° N
SL-16 R/B 3.5 23:12:10 10° N 23:18:06 49° WNW 23:24:00 10° SW
ATLAS CENTAUR R/B 2.6 23:17:51 10° NNE 23:19:15 12° NE 23:20:37 10° ENE
Cosmos 1697 Rocket 3.3 23:15:26 10° S 23:20:32 37° ESE 23:25:39 10° NE
Cosmos 1484 Rocket 3.7 23:17:34 10° S 23:20:59 48° W 23:24:25 10° NNW
Cosmos 1743 3.0 23:18:43 10° NNE 23:21:38 30° E 23:24:32 10° SE
BlueWalker 3 3.5 23:19:20 10° N 23:21:39 16° NNE 23:23:56 10° ENE
SMAP 3.0 23:20:11 10° SSE 23:24:47 67° ENE 23:29:24 10° N
Cosmos 1626 Rocket 3.4 23:20:39 10° N 23:24:59 75° E 23:29:14 10° S
Cosmos 1606 Rocket 4.3 23:22:40 10° SSE 23:26:30 31° E 23:30:23 10° NNE
Cosmos 1461 2.6 23:23:46 10° SSW 23:27:34 73° ESE 23:31:29 10° NNE
Gbstr 26 Del rocket 2.8 23:23:36 10° SW 23:27:55 78° SE 23:31:38 11° NE
ATLAS 5 CENTAUR R/B 4.5 23:22:41 10° S 23:28:20 47° ESE 23:48:44 10° NE
SAR-Lupe-3 4.3 23:26:51 10° NNE 23:29:13 35° E 23:31:34 10° S
Cosmos 2151 3.4 23:26:14 10° N 23:30:05 37° E 23:33:57 10° SSE
Landsat 7 3.8 23:26:18 10° SSE 23:30:51 58° ENE 23:35:25 10° N
IRS-1C 4.2 23:25:58 10° SSE 23:31:10 58° ENE 23:36:23 10° N
Meteor 1-20 Rocket 4.5 23:29:50 10° N 23:35:01 43° ENE 23:40:11 10° SSE
Cosmos 1544 Rocket 4.4 23:31:07 10° SSW 23:35:23 53° W 23:39:42 10° N
Thor Agena Rocket 3.9 23:32:15 10° S 23:37:28 73° WSW 23:42:40 10° NNW
SAR-Lupe-4 3.4 23:38:01 10° SSE 23:41:33 71° ENE 23:45:06 10° N
Cosmos 1733 2.3 23:40:15 10° NNW 23:42:04 48° W 23:43:52 10° S
Okean 1-7 Rocket 4.0 23:39:01 10° N 23:43:06 38° E 23:47:09 10° SSE
SAR-Lupe-1 3.9 23:45:30 10° SSE 23:49:03 77° ENE 23:52:39 10° N
Cosmos 1503 Rocket 4.2 23:46:55 10° SSW 23:52:11 74° WNW 23:57:24 10° NNE
Cosmos 1726 Rocket 3.9 23:48:27 10° SSE 23:52:51 47° E 23:57:19 10° NNE
